San Diego, CA

4:35 PM PST on February 24, 2017 (GMT -0800)
San Diego International-Lindbergh

Weather History for KSAN - April, 2013

Change the Weather History Date:

Thursday, April 11, 2013

  Actual Average Record
Temperature  
Mean Temperature 60 °F 61 °F  
Max Temperature 64 °F 67 °F 90 °F (1940)
Min Temperature 56 °F 55 °F 44 °F (1945)
Degree Days  
Heating Degree Days 5 4  
Month to date heating degree days 36 49  
Since 1 July heating degree days 1017 1085  
Cooling Degree Days 0 0  
Month to date cooling degree days 0 0  
Year to date cooling degree days 4 10  
Growing Degree Days 10 (Base 50)    
Moisture  
Dew Point 48 °F    
Average Humidity 52    
Maximum Humidity 72    
Minimum Humidity 32    
Precipitation  
Precipitation 0.00 in 0.03 in 1.18 in (1941)
Month to date precipitation T 0.38  
Year to date precipitation 3.06 6.44  
Since 1 July precipitation 6.23  
Snow  
Snow 0.00 in - - ()
Month to date snowfall 0.0  
Year to date snowfall 0.0  
Snow Depth 0.00 in    
Sea Level Pressure  
Sea Level Pressure 29.92 in    
Wind  
Wind Speed 6 mph (South)    
Max Wind Speed 17 mph    
Max Gust Speed 22 mph    
Visibility 9 miles    
Events      
T = Trace of Precipitation, MM = Missing Value Source: NWS Daily Summary

Daily Weather History Graph

Daily Weather History Graph

Search for Another Location

Airport or City:

Trip Planner

Search our weather history database for the weather conditions in past years. The results will help you decide how hot, cold, wet, or windy it might be!

Date:

Astronomy

Apr. 11, 2013 Rise Set
Actual Time 6:23 AM PDT 7:16 PM PDT
Civil Twilight 5:58 AM PDT 7:41 PM PDT
Nautical Twilight 5:28 AM PDT 8:11 PM PDT
Astronomical Twilight 4:58 AM PDT 8:41 PM PDT
Moon 7:02 AM PDT (4/11) 8:48 PM PDT (4/11)
Length of Visible Light 13h 42m
Length of Day
12h 52m
New Moon, 2% of the Moon is Illuminated
Apr 11
New Moon
Apr 18
First Quarter
Apr 25
Full
May 2
Last Quarter
May 9
New

Hourly Weather History & Observations

Time (PDT) Temp. Dew Point Humidity Pressure Visibility Wind Dir Wind Speed Gust Speed Precip Events Conditions
12:51 AM 61.0 °F 52.0 °F 72% 30.04 in 10.0 mi SSE 3.5 mph - N/A   Clear
1:51 AM 61.0 °F 50.0 °F 67% 30.02 in 10.0 mi Calm Calm - N/A   Clear
2:51 AM 59.0 °F 42.1 °F 53% 30.00 in 10.0 mi Calm Calm - N/A   Clear
3:51 AM 57.9 °F 43.0 °F 58% 29.98 in 10.0 mi Calm Calm - N/A   Clear
4:51 AM 57.0 °F 43.0 °F 59% 29.96 in 10.0 mi Calm Calm - N/A   Clear
5:51 AM 55.9 °F 39.9 °F 55% 29.96 in 10.0 mi Calm Calm - N/A   Partly Cloudy
6:51 AM 57.0 °F 30.9 °F 37% 29.97 in 10.0 mi Calm Calm - N/A   Partly Cloudy
7:51 AM 61.0 °F 30.9 °F 32% 29.98 in 10.0 mi ESE 4.6 mph - N/A   Partly Cloudy
8:51 AM 61.0 °F 52.0 °F 72% 29.97 in 10.0 mi South 8.1 mph - N/A   Scattered Clouds
9:51 AM 62.1 °F 52.0 °F 70% 29.98 in 10.0 mi South 5.8 mph - N/A   Scattered Clouds
10:51 AM 63.0 °F 53.1 °F 70% 29.96 in 9.0 mi South 11.5 mph - N/A   Scattered Clouds
11:51 AM 63.0 °F 52.0 °F 67% 29.96 in 9.0 mi SSW 10.4 mph - N/A   Scattered Clouds
12:51 PM 63.0 °F 52.0 °F 67% 29.94 in 9.0 mi SSW 10.4 mph - N/A   Scattered Clouds
1:51 PM 62.1 °F 52.0 °F 70% 29.91 in 9.0 mi South 13.8 mph - N/A   Scattered Clouds
2:44 PM 62.6 °F 51.8 °F 68% 29.89 in 8.0 mi South 15.0 mph - N/A   Mostly Cloudy
2:51 PM 63.0 °F 52.0 °F 67% 29.89 in 9.0 mi South 12.7 mph - N/A   Mostly Cloudy
3:16 PM 62.6 °F 51.8 °F 68% 29.87 in 9.0 mi South 13.8 mph - N/A   Mostly Cloudy
3:51 PM 62.1 °F 52.0 °F 70% 29.86 in 9.0 mi SSW 12.7 mph - N/A   Mostly Cloudy
4:51 PM 61.0 °F 51.1 °F 70% 29.86 in 8.0 mi SW 11.5 mph - N/A   Mostly Cloudy
5:51 PM 60.1 °F 50.0 °F 69% 29.85 in 9.0 mi SW 9.2 mph - N/A   Mostly Cloudy
6:51 PM 59.0 °F 50.0 °F 72% 29.85 in 9.0 mi SSW 10.4 mph - N/A   Mostly Cloudy
7:51 PM 59.0 °F 51.1 °F 75% 29.85 in 9.0 mi SSW 9.2 mph - N/A   Mostly Cloudy
8:51 PM 59.0 °F 50.0 °F 72% 29.86 in 10.0 mi South 8.1 mph - N/A   Mostly Cloudy
8:58 PM 59.0 °F 50.0 °F 72% 29.85 in 10.0 mi South 10.4 mph - N/A   Mostly Cloudy
9:51 PM 59.0 °F 50.0 °F 72% 29.85 in 9.0 mi South 10.4 mph - N/A   Mostly Cloudy
10:51 PM 59.0 °F 48.9 °F 69% 29.86 in 10.0 mi South 5.8 mph - N/A   Mostly Cloudy
11:00 PM - - N/A% - - North - - N/A   Sand
11:51 PM 59.0 °F 51.1 °F 75% 29.85 in 10.0 mi SSE 8.1 mph - N/A   Overcast